Flag for Norway Weather past 2 weeks in Lillestrøm, Norway

Now
58 °F

Cool.


Feels Like: 58 °F
Forecast: 53 / 69 °F
Wind: 1 mph from South

Location: Oslo-Blindern

Current Time: Sep 3, 2014 at 4:13:45 AM

Latest Report: Sep 3, 2014 at 3:00 AM


Visibility: N/A

Pressure: 30.29 "Hg

Humidity: 96%

Dew point: 57 °F

Location of LillestrømLocation

Historic Weather in Lillestrøm — Graph

°F

Lillestrøm temperature yesterday

Maximum temperature yesterday: 71 °F (at 3:00 PM)
Minimum temperature yesterday: 51 °F (at 7:00 AM)
Average temperature yesterday: 61 °F

Past Weeks' High & Low Weather Summary

 TemperatureHumidityPressure
High71 °F (Sep 2, 3:00 PM)96% (Aug 20, 3:00 AM)30.29 "Hg (Aug 20, 3:00 AM)
Low46 °F (Aug 24, 6:00 AM)39% (Aug 27, 2:00 PM)29.21 "Hg (Aug 19, 2:00 AM)
Average58 °F74%29.80 "Hg
* Reported Aug 19 2:00 AM — Sep 3 2:00 AM, Lillestrøm, Weather by CustomWeather, © 2014

Note: Actual official high and low records may vary slightly from our data, if they occured in-between our weather recording intervals... More about our weather records

Advertising

Lillestrøm weather history for previous 24 hours

 ConditionsComfort  
Time TempWeatherWind HumidityBarometerVisibility
2:00 AM
Sep 3
59 °FLow clouds.1 mph93%30.29 "Hg12 mi
1:00 AM59 °FCool.1 mph92%30.28 "HgN/A
12:00 AM59 °FCool.1 mph94%30.27 "HgN/A
11:00 PM
Sep 2
58 °FOvercast.1 mph94%30.27 "Hg19 mi
10:00 PM60 °FCool.1 mph90%30.25 "HgN/A
9:00 PM62 °FCool.3 mph86%30.24 "HgN/A
8:00 PM63 °FOvercast.3 mph81%30.22 "Hg43 mi
7:00 PM65 °FMild.2 mph75%30.21 "HgN/A
6:00 PM65 °FMild.3 mph73%30.20 "HgN/A
5:00 PM67 °FPartly sunny.5 mph68%30.19 "Hg40 mi
4:00 PM69 °FMild.3 mph63%30.19 "HgN/A
3:00 PM71 °FMild.3 mph57%30.19 "HgN/A
2:00 PM71 °FPassing clouds.3 mph56%30.20 "Hg47 mi
1:00 PM68 °FMild.3 mph61%30.20 "HgN/A
12:00 PM67 °FMild.3 mph60%30.20 "HgN/A
11:00 AM65 °FMild.2 mph67%30.20 "HgN/A
10:00 AM64 °FMild.2 mph70%30.19 "HgN/A
9:00 AM60 °FCool.2 mph74%30.19 "HgN/A
8:00 AM57 °FPartly sunny.1 mph85%30.18 "Hg43 mi
7:00 AM51 °FCool.No wind93%30.18 "HgN/A
6:00 AM53 °FCool.2 mph88%30.17 "HgN/A
5:00 AM53 °FOvercast.1 mph87%30.17 "Hg43 mi
4:00 AM53 °FCool.1 mph88%30.17 "HgN/A
Weather by CustomWeather, © 2014

See weather overviewHow to use our weather pages